Location: Newark
(40.9833°N, 0.0333°W)
Time: 17:08:59
(UTC+00:00)

Vanguard 2 Rocket - Pass Details

Date: 28 October 2020
Orbit: 554 x 3326 km, 32.9° (Epoch: 24 November)

Event Time Altitude Azimuth Distance (km) Brightness Sun altitude
Rises 22:50:43 0° 263° (W) 3,371 - -60.2°
Reaches altitude 10° 22:53:16 10° 248° (WSW) 2,699 - -60.4°
Maximum altitude 22:58:28 25° 196° (SSW) 2,359 - -60.8°
Drops below altitude 10° 23:06:12 10° 147° (SSE) 4,157 - -61.3°
Sets 23:11:22 0° 137° (SE) 5,695 - -61.6°
